EW5205 Weather Reports


Display with metric or nautical units.
time (UTC)temp
F
wind
direction
speed
MPH
gust
MPH
rain 1hr
in
rain 24hr
in
rain mn
in
humidity
%
barometer
mb
20260510064549 67 105 1.0 5.0 0.00 0.00 0.00 20 1015.0
20260510063043 69 36 1.0 9.0 0.00 0.00 0.00 18 1015.3
20260510061539 68 113 0.0 1.0 0.00 0.00 0.00 20 1014.9
20260510060040 69 23 0.0 0.0 0.00 0.00 0.00 19 1015.0
20260510054535 71 277 0.0 0.0 0.00 0.00 0.00 17 1015.1
20260510053034 72 82 0.0 0.0 0.00 0.00 0.00 17 1015.0
20260510051535 73 356 0.0 0.0 0.00 0.00 0.00 16 1015.1
20260510050035 69 185 0.0 0.0 0.00 0.00 0.00 20 1015.1
20260510044532 68 56 0.0 1.0 0.00 0.00 0.00 20 1014.9
20260510043032 70 112 0.0 0.0 0.00 0.00 0.00 19 1014.9
20260510041545 70 85 0.0 0.0 0.00 0.00 0.00 18 1014.7
20260510040033 70 358 0.0 0.0 0.00 0.00 0.00 17 1014.7
20260510034530 72 197 0.0 0.0 0.00 0.00 0.00 16 1014.6
20260510033030 73 186 0.0 1.0 0.00 0.00 0.00 15 1014.5
20260510031533 74 230 0.0 0.0 0.00 0.00 0.00 15 1014.2
20260510030029 75 188 0.0 5.0 0.00 0.00 0.00 14 1014.0
20260510024530 76 159 3.0 10.0 0.00 0.00 0.00 13 1013.6
20260510023028 78 191 4.0 10.0 0.00 0.00 0.00 12 1013.3
20260510021535 78 212 3.0 11.0 0.00 0.00 0.00 12 1013.0
20260510020031 80 247 5.0 13.0 0.00 0.00 0.00 11 1012.9
20260510014531 79 247 3.0 9.0 0.00 0.00 0.00 11 1012.8
20260510013029 79 214 1.0 7.0 0.00 0.00 0.00 11 1012.7
20260510011526 80 222 1.0 11.0 0.00 0.00 0.00 11 1012.6
20260510010025 82 218 7.0 20.0 0.00 0.00 0.00 10 1012.5
20260510004524 82 250 9.0 14.0 0.00 0.00 0.00 10 1012.6
20260510003025 82 235 6.0 23.0 0.00 0.00 0.00 10 1012.6
20260510001535 83 228 9.0 13.0 0.00 0.00 0.00 9 1012.4
20260510000024 84 225 7.0 13.0 0.00 0.00 0.00 9 1012.4
20260509234604 84 278 0.0 6.0 0.00 0.00 0.00 9 1012.4
20260509233058 85 242 4.0 11.0 0.00 0.00 0.00 9 1012.6
20260509231552 85 260 0.0 7.0 0.00 0.00 0.00 9 1012.7
20260509224601 86 247 1.0 7.0 0.00 0.00 0.00 9 1012.9
20260509223028 86 208 6.0 13.0 0.00 0.00 0.00 8 1013.2
20260509221624 87 206 3.0 14.0 0.00 0.00 0.00 8 1013.3
20260509214504 86 202 4.0 15.0 0.00 0.00 0.00 8 1013.7
20260509213132 87 218 6.0 14.0 0.00 0.00 0.00 8 1014.0
20260509211554 87 280 7.0 12.0 0.00 0.00 0.00 8 1014.3
20260509204557 86 193 3.0 17.0 0.00 0.00 0.00 9 1014.5
20260509203013 87 328 3.0 21.0 0.00 0.00 0.00 9 1015.0
20260509201607 87 224 12.0 17.0 0.00 0.00 0.00 8 1014.9
20260509200001 86 275 9.0 18.0 0.00 0.00 0.00 9 1015.4
20260509194603 85 257 6.0 19.0 0.00 0.00 0.00 10 1015.5
20260509193028 85 225 7.0 14.0 0.00 0.00 0.00 9 1015.8
20260509191620 85 243 7.0 14.0 0.00 0.00 0.00 10 1016.1
20260509184535 83 280 3.0 10.0 0.00 0.00 0.00 10 1016.4
20260509183117 83 242 2.0 9.0 0.00 0.00 0.00 11 1016.7
20260509181609 82 221 3.0 9.0 0.00 0.00 0.00 12 1016.9
20260509180002 81 270 0.0 7.0 0.00 0.00 0.00 12 1017.3
20260509174601 80 235 1.0 3.0 0.00 0.00 0.00 14 1017.7
20260509173000 79 194 2.0 5.0 0.00 0.00 0.00 14 1017.9
20260509171603 77 200 3.0 7.0 0.00 0.00 0.00 16 1017.9
20260509164542 75 245 0.0 0.0 0.00 0.00 0.00 17 1018.3
20260509163135 74 20 0.0 5.0 0.00 0.00 0.00 18 1018.2
20260509161528 73 232 1.0 6.0 0.00 0.00 0.00 18 1018.2
20260509160023 73 292 3.0 12.0 0.00 0.00 0.00 18 1018.0
20260509154521 71 278 2.0 7.0 0.00 0.00 0.00 19 1018.2
20260509153015 70 277 3.0 5.0 0.00 0.00 0.00 20 1018.2
20260509151510 70 306 0.0 5.0 0.00 0.00 0.00 21 1018.2
20260509150015 70 294 0.0 4.0 0.00 0.00 0.00 20 1018.0
20260509144507 70 21 0.0 0.0 0.00 0.00 0.00 20 1017.9
20260509143058 69 316 0.0 0.0 0.00 0.00 0.00 21 1017.9
20260509141558 70 35 0.0 0.0 0.00 0.00 0.00 20 1017.9
20260509140110 70 142 0.0 0.0 0.00 0.00 0.00 22 1017.9
20260509134554 66 130 0.0 0.0 0.00 0.00 0.00 26 1017.9
20260509133056 61 124 0.0 0.0 0.00 0.00 0.00 29 1017.9
20260509131556 56 131 0.0 0.0 0.00 0.00 0.00 33 1017.9
20260509130053 55 119 0.0 0.0 0.00 0.00 0.00 31 1017.7
20260509124546 53 134 0.0 0.0 0.00 0.00 0.00 32 1017.5
20260509123045 52 138 0.0 1.0 0.00 0.00 0.00 33 1017.4
20260509121556 52 119 0.0 1.0 0.00 0.00 0.00 32 1017.1
20260509120043 50 132 0.0 2.0 0.00 0.00 0.00 33 1017.0
20260509114542 50 112 0.0 0.0 0.00 0.00 0.00 35 1016.7
20260509113038 50 124 0.0 0.0 0.00 0.00 0.00 35 1016.8
20260509111537 49 121 0.0 0.0 0.00 0.00 0.00 35 1016.7
20260509110035 48 118 0.0 0.0 0.00 0.00 0.00 36 1016.7
20260509104533 48 243 0.0 0.0 0.00 0.00 0.00 36 1016.5
20260509103030 50 140 0.0 0.0 0.00 0.00 0.00 33 1016.5
20260509101526 50 112 0.0 0.0 0.00 0.00 0.00 33 1016.4
20260509100029 50 305 0.0 0.0 0.00 0.00 0.00 32 1016.2
20260509094521 53 294 0.0 3.0 0.00 0.00 0.00 28 1016.2
20260509093018 53 150 0.0 1.0 0.00 0.00 0.00 29 1015.9
20260509091517 54 140 0.0 1.0 0.00 0.00 0.00 27 1015.6
20260509090016 53 108 0.0 0.0 0.00 0.00 0.00 28 1015.7
20260509084515 54 100 0.0 0.0 0.00 0.00 0.00 27 1015.7
20260509083007 55 316 0.0 0.0 0.00 0.00 0.00 26 1015.8
20260509081503 57 119 0.0 0.0 0.00 0.00 0.00 24 1015.5
20260509074556 60 69 0.0 1.0 0.00 0.00 0.00 23 1015.8
20260509073052 61 225 0.0 0.0 0.00 0.00 0.00 23 1015.8
20260509071550 65 115 0.0 4.0 0.00 0.00 0.00 21 1015.6
20260509070046 66 105 1.0 6.0 0.00 0.00 0.00 20 1015.8